| time (UTC) | temp F | wind direction | speed MPH | gust MPH | rain 1hr in | rain 24hr in | rain mn in | humidity % | barometer mb |
| 20260906024529 | 95 | 288 | 0.0 | 8.0 | 0.00 | 0.88 | 0.87 | 32 | 965.9 |
| 20260906023028 | 96 | 295 | 2.0 | 10.0 | 0.00 | 0.88 | 0.87 | 31 | 965.7 |
| 20260906021528 | 96 | 296 | 0.0 | 11.0 | 0.02 | 0.88 | 0.87 | 30 | 965.6 |
| 20260906020028 | 96 | 291 | 0.0 | 9.0 | 0.07 | 0.88 | 0.87 | 30 | 965.6 |
| 20260906014531 | 97 | 269 | 3.0 | 8.0 | 0.07 | 0.88 | 0.87 | 30 | 965.7 |
| 20260906013027 | 97 | 292 | 2.0 | 9.0 | 0.12 | 0.88 | 0.87 | 30 | 965.7 |
| 20260906011534 | 97 | 291 | 5.0 | 11.0 | 0.20 | 0.86 | 0.85 | 30 | 965.8 |
| 20260906010030 | 98 | 287 | 2.0 | 8.0 | 0.17 | 0.81 | 0.80 | 29 | 965.8 |
| 20260906004525 | 98 | 300 | 7.0 | 13.0 | 0.27 | 0.81 | 0.80 | 29 | 965.9 |
| 20260906003025 | 99 | 269 | 7.0 | 16.0 | 0.56 | 0.76 | 0.75 | 29 | 965.8 |
| 20260906001525 | 99 | 300 | 1.0 | 11.0 | 0.53 | 0.66 | 0.65 | 30 | 965.7 |
| 20260906000024 | 100 | 282 | 0.0 | 10.0 | 0.51 | 0.64 | 0.63 | 30 | 965.6 |
| 20260905234523 | 99 | 296 | 7.0 | 15.0 | 0.41 | 0.55 | 0.53 | 30 | 965.7 |
| 20260905233022 | 101 | 306 | 6.0 | 14.0 | 0.10 | 0.21 | 0.19 | 30 | 965.6 |
| 20260905231520 | 101 | 291 | 1.0 | 10.0 | 0.03 | 0.14 | 0.12 | 31 | 965.6 |
| 20260905230020 | 99 | 279 | 0.0 | 9.0 | 0.06 | 0.14 | 0.12 | 32 | 965.7 |
| 20260905224530 | 100 | 304 | 2.0 | 12.0 | 0.06 | 0.22 | 0.11 | 32 | 965.7 |
| 20260905223018 | 100 | 292 | 0.0 | 9.0 | 0.04 | 0.20 | 0.09 | 33 | 965.8 |
| 20260905221518 | 99 | 277 | 4.0 | 16.0 | 0.05 | 0.20 | 0.09 | 33 | 965.9 |
| 20260905220015 | 100 | 223 | 2.0 | 11.0 | 0.04 | 0.17 | 0.06 | 33 | 966.2 |
| 20260905214513 | 100 | 239 | 0.0 | 7.0 | 0.03 | 0.47 | 0.05 | 32 | 966.3 |
| 20260905213010 | 100 | 239 | 0.0 | 10.0 | 0.03 | 0.47 | 0.05 | 33 | 966.5 |
| 20260905211509 | 100 | 234 | 3.0 | 10.0 | 0.03 | 0.46 | 0.04 | 33 | 966.8 |
| 20260905210008 | 100 | 194 | 0.0 | 3.0 | 0.01 | 0.73 | 0.02 | 34 | 966.9 |
| 20260905204507 | 98 | 193 | 0.0 | 4.0 | 0.01 | 0.73 | 0.02 | 34 | 967.1 |
| 20260905203003 | 99 | 192 | 2.0 | 12.0 | 0.00 | 0.72 | 0.01 | 34 | 967.4 |
| 20260905201506 | 98 | 180 | 1.0 | 6.0 | 0.00 | 0.72 | 0.01 | 34 | 967.7 |
| 20260905200002 | 98 | 167 | 0.0 | 7.0 | 0.00 | 0.96 | 0.01 | 34 | 967.8 |
| 20260905194600 | 98 | 167 | 2.0 | 8.0 | 0.00 | 0.96 | 0.01 | 35 | 967.9 |
| 20260905193057 | 97 | 167 | 0.0 | 9.0 | 0.00 | 0.96 | 0.01 | 34 | 968.2 |
| 20260905191556 | 96 | 167 | 4.0 | 9.0 | 0.00 | 0.96 | 0.01 | 34 | 968.3 |
| 20260905190056 | 97 | 134 | 0.0 | 0.0 | 0.01 | 0.96 | 0.01 | 33 | 968.5 |
| 20260905184600 | 98 | 113 | 1.0 | 6.0 | 0.01 | 1.11 | 0.01 | 33 | 968.7 |
| 20260905183056 | 96 | 104 | 0.0 | 0.0 | 0.01 | 1.11 | 0.01 | 34 | 968.9 |
| 20260905181604 | 96 | 102 | 0.0 | 0.0 | 0.01 | 1.11 | 0.01 | 34 | 969.0 |
| 20260905180050 | 96 | 84 | 0.0 | 0.0 | 0.00 | 1.10 | 0.00 | 35 | 969.1 |
| 20260905174553 | 95 | 163 | 0.0 | 4.0 | 0.00 | 1.41 | 0.00 | 36 | 969.1 |
| 20260905173048 | 96 | 279 | 0.0 | 0.0 | 0.00 | 1.41 | 0.00 | 35 | 969.1 |
| 20260905171546 | 95 | 71 | 0.0 | 0.0 | 0.00 | 1.41 | 0.00 | 36 | 969.2 |
| 20260905170043 | 93 | 71 | 0.0 | 0.0 | 0.00 | 1.41 | 0.00 | 38 | 969.2 |
| 20260905164542 | 93 | 68 | 0.0 | 0.0 | 0.00 | 1.67 | 0.00 | 37 | 969.1 |
| 20260905163040 | 93 | 68 | 0.0 | 0.0 | 0.00 | 1.67 | 0.00 | 39 | 969.1 |
| 20260905161539 | 92 | 129 | 0.0 | 0.0 | 0.00 | 1.67 | 0.00 | 40 | 969.1 |
| 20260905160106 | 92 | 128 | 0.0 | 0.0 | 0.00 | 1.67 | 0.00 | 41 | 969.3 |
| 20260905154534 | 91 | 149 | 0.0 | 0.0 | 0.00 | 1.97 | 0.00 | 42 | 969.0 |
| 20260905153033 | 89 | 275 | 0.0 | 0.0 | 0.00 | 1.97 | 0.00 | 45 | 968.9 |
| 20260905151535 | 87 | 275 | 0.0 | 0.0 | 0.00 | 1.97 | 0.00 | 47 | 968.8 |
| 20260905150034 | 87 | 275 | 0.0 | 0.0 | 0.00 | 1.97 | 0.00 | 48 | 968.7 |
| 20260905144531 | 86 | 275 | 0.0 | 0.0 | 0.00 | 1.97 | 0.00 | 48 | 968.7 |
| 20260905143030 | 86 | 275 | 0.0 | 0.0 | 0.00 | 1.97 | 0.00 | 50 | 968.7 |
| 20260905141529 | 85 | 275 | 0.0 | 0.0 | 0.00 | 1.97 | 0.00 | 49 | 968.5 |
| 20260905140027 | 85 | 275 | 0.0 | 0.0 | 0.00 | 1.97 | 0.00 | 49 | 968.4 |
| 20260905134525 | 84 | 275 | 0.0 | 0.0 | 0.00 | 1.97 | 0.00 | 50 | 968.2 |
| 20260905133023 | 83 | 275 | 0.0 | 0.0 | 0.00 | 1.97 | 0.00 | 52 | 968.0 |
| 20260905131522 | 83 | 275 | 0.0 | 0.0 | 0.00 | 1.97 | 0.00 | 52 | 967.9 |
| 20260905130020 | 83 | 275 | 0.0 | 0.0 | 0.00 | 1.97 | 0.00 | 51 | 967.8 |
| 20260905124517 | 84 | 275 | 0.0 | 0.0 | 0.00 | 1.97 | 0.00 | 51 | 967.7 |
| 20260905123015 | 84 | 275 | 0.0 | 0.0 | 0.00 | 1.97 | 0.00 | 49 | 967.6 |
| 20260905121513 | 85 | 275 | 0.0 | 0.0 | 0.00 | 1.97 | 0.00 | 49 | 967.6 |
| 20260905120011 | 85 | 275 | 0.0 | 0.0 | 0.00 | 1.97 | 0.00 | 48 | 967.4 |
| 20260905114512 | 85 | 275 | 0.0 | 0.0 | 0.00 | 1.97 | 0.00 | 48 | 967.4 |
| 20260905113010 | 84 | 275 | 0.0 | 0.0 | 0.00 | 1.97 | 0.00 | 48 | 967.4 |
| 20260905111508 | 85 | 275 | 0.0 | 0.0 | 0.00 | 1.97 | 0.00 | 46 | 967.3 |
| 20260905110009 | 85 | 275 | 0.0 | 0.0 | 0.00 | 1.97 | 0.00 | 45 | 967.2 |
| 20260905104502 | 86 | 275 | 0.0 | 0.0 | 0.00 | 1.97 | 0.00 | 44 | 967.1 |
| 20260905103100 | 87 | 275 | 0.0 | 0.0 | 0.00 | 1.97 | 0.00 | 43 | 967.0 |
| 20260905101559 | 87 | 275 | 0.0 | 0.0 | 0.00 | 1.97 | 0.00 | 43 | 967.0 |
| 20260905100058 | 87 | 275 | 0.0 | 0.0 | 0.00 | 1.97 | 0.00 | 42 | 966.9 |
| 20260905094557 | 87 | 275 | 0.0 | 0.0 | 0.00 | 1.97 | 0.00 | 42 | 966.8 |
| 20260905093057 | 87 | 275 | 0.0 | 0.0 | 0.00 | 1.97 | 0.00 | 41 | 967.0 |
| 20260905091618 | 88 | 275 | 0.0 | 0.0 | 0.00 | 1.97 | 0.00 | 41 | 966.9 |
| 20260905090116 | 88 | 275 | 0.0 | 0.0 | 0.00 | 1.97 | 0.00 | 40 | 966.8 |
| 20260905084600 | 89 | 275 | 0.0 | 0.0 | 0.00 | 1.97 | 0.00 | 39 | 967.0 |
| 20260905083048 | 89 | 275 | 0.0 | 0.0 | 0.00 | 1.97 | 0.00 | 39 | 967.0 |
| 20260905081546 | 90 | 275 | 0.0 | 0.0 | 0.00 | 1.97 | 0.00 | 38 | 966.9 |
| 20260905080050 | 90 | 275 | 0.0 | 0.0 | 0.00 | 1.97 | 0.00 | 38 | 967.0 |
| 20260905074544 | 90 | 275 | 0.0 | 0.0 | 0.00 | 1.98 | 0.00 | 37 | 966.9 |
| 20260905073046 | 91 | 275 | 0.0 | 0.0 | 0.00 | 1.98 | 0.00 | 37 | 966.8 |
| 20260905071538 | 91 | 275 | 0.0 | 0.0 | 0.00 | 1.98 | 0.00 | 36 | 966.8 |
| 20260905070037 | 92 | 275 | 0.0 | 0.0 | 0.00 | 1.98 | 0.00 | 36 | 966.8 |
| 20260905064541 | 92 | 275 | 0.0 | 0.0 | 0.00 | 2.11 | 1.98 | 36 | 966.8 |
| 20260905063036 | 92 | 275 | 0.0 | 0.0 | 0.00 | 2.11 | 1.98 | 35 | 966.7 |
| 20260905061550 | 93 | 275 | 0.0 | 2.0 | 0.00 | 2.11 | 1.98 | 35 | 966.6 |
| 20260905060035 | 93 | 260 | 0.0 | 0.0 | 0.00 | 2.11 | 1.98 | 35 | 966.5 |
| 20260905054535 | 93 | 260 | 0.0 | 0.0 | 0.00 | 2.11 | 1.98 | 35 | 966.5 |
| 20260905053033 | 93 | 260 | 0.0 | 0.0 | 0.00 | 2.11 | 1.98 | 35 | 966.4 |
| 20260905051538 | 94 | 260 | 0.0 | 0.0 | 0.00 | 2.11 | 1.98 | 34 | 966.3 |
| 20260905050036 | 94 | 260 | 0.0 | 0.0 | 0.00 | 2.11 | 1.98 | 32 | 966.3 |
| 20260905044535 | 95 | 244 | 0.0 | 0.0 | 0.00 | 2.11 | 1.98 | 31 | 966.2 |
| 20260905043032 | 95 | 242 | 0.0 | 0.0 | 0.00 | 2.11 | 1.98 | 31 | 966.1 |
| 20260905041532 | 96 | 272 | 0.0 | 0.0 | 0.00 | 2.11 | 1.98 | 30 | 966.0 |
| 20260905040035 | 96 | 272 | 0.0 | 4.0 | 0.01 | 2.11 | 1.98 | 30 | 965.9 |
| 20260905034531 | 97 | 276 | 0.0 | 7.0 | 0.01 | 2.11 | 1.98 | 29 | 965.8 |
| 20260905033033 | 97 | 292 | 0.0 | 9.0 | 0.01 | 2.11 | 1.98 | 29 | 965.6 |
| 20260905031530 | 97 | 261 | 3.0 | 10.0 | 0.01 | 2.11 | 1.98 | 30 | 965.4 |
| 20260905030036 | 97 | 148 | 0.0 | 0.0 | 0.00 | 2.10 | 1.97 | 36 | 965.2 |